Location: Unspecified
(43.3116°N, 2.0147°W)
Time: 21:38:06
(UTC+02:00)

Resurs 1-4 Rocket - Visible Passes

Search period start: 24 July 2024 00:00
Search period end: 03 August 2024 00:00
Orbit: 799 x 812 km, 98.7° (Epoch: 24 July)

Date Brightness Start Highest point End Pass type
(mag) Time Alt. Az. Time Alt. Az. Time Alt. Az.
24 Jul 3.4 03:22:50 10° NE 03:27:33 31° E 03:29:04 27° SE visible
24 Jul 3.0 05:02:31 10° N 05:07:20 36° WNW 05:10:07 21° WSW visible
25 Jul 4.0 02:58:42 10° NE 03:02:25 19° E 03:03:47 17° ESE visible
25 Jul 2.3 04:37:20 10° N 04:42:34 58° WNW 04:44:50 33° SW visible
26 Jul 4.5 02:35:55 10° ENE 02:37:10 11° E 02:38:23 10° E visible
26 Jul 2.1 04:12:20 10° NNE 04:17:42 86° ESE 04:19:33 43° S visible
26 Jul 4.1 05:53:57 10° NNW 05:56:44 15° WNW 05:59:32 10° W visible
27 Jul 2.6 03:47:32 10° NNE 03:52:44 52° E 03:54:16 39° SSE visible
27 Jul 3.6 05:28:04 10° NNW 05:32:09 23° WNW 05:35:19 14° WSW visible
28 Jul 3.3 03:22:59 10° NE 03:27:42 31° E 03:28:58 28° ESE visible
28 Jul 3.0 05:02:39 10° N 05:07:28 36° WNW 05:10:02 23° WSW visible
29 Jul 4.0 02:58:50 10° NE 03:02:33 19° E 03:03:41 18° ESE visible
29 Jul 2.3 04:37:28 10° N 04:42:42 58° WNW 04:44:44 35° SW visible
30 Jul 4.5 02:36:04 10° ENE 02:37:18 11° E 02:38:23 10° E visible
30 Jul 2.0 04:12:28 10° NNE 04:17:50 86° ESE 04:19:26 47° S visible
30 Jul 4.1 05:54:05 10° NNW 05:56:52 15° WNW 05:59:40 10° W visible
31 Jul 2.6 03:47:40 10° NNE 03:52:52 52° E 03:54:08 42° SE visible
31 Jul 3.6 05:28:12 10° NNW 05:32:17 23° WNW 05:35:12 15° WSW visible
01 Aug 3.3 03:23:07 10° NE 03:27:49 31° E 03:28:51 29° ESE visible
01 Aug 2.9 05:02:47 10° N 05:07:36 36° WNW 05:09:54 25° WSW visible
02 Aug 4.0 02:58:58 10° NE 03:02:40 19° E 03:03:33 18° ESE visible
02 Aug 2.3 04:37:36 10° N 04:42:49 58° WNW 04:44:36 39° SW visible
